Regional Weather Roundup
Issued by NWS

Home | Current Version | Previous Version | Graphics & Text | Print | Product List | Glossary On
Versions: 1 2 3 4 5 6 7 8 9 10 11 12 13 14 15 16 17 18 19 20 21 22 23 24 25 26 27 28 29 30 31 32 33 34 35 36 37 38 39 40 41 42 43 44 45 46 47 48 49 50
000
ASUS45 KBOU 050010
RWRCO

WEATHER ROUNDUP FOR COLORADO
NATIONAL WEATHER SERVICE DENVER/BOULDER CO
600 PM MDT SAT JUL 04 2015

NOTE: "FAIR" INDICATES FEW OR NO CLOUDS BELOW 12000 FEET WITH NO
SIGNIFICANT WEATHER AND/OR OBSTRUCTIONS TO VISIBILITY.

COZ001>005-013-030-031-050100-
...NORTHWEST COLORADO...

CITY           SKY/WX    TMP DP  RH WIND       PRES   REMARKS
CRAIG          CLOUDY    74  56  53 SE6       30.08F
HAYDEN         CLOUDY    70  50  49 SE7       30.13S
MEEKER         CLOUDY    79  47  32 N21G28    30.10R
MOUNT WERNER   NOT AVBL
STEAMBOAT SPGS CLOUDY    72  51  47 S6        30.15R
WALDEN         PTSUNNY   68  50  52 E10       30.23F
$$

COZ006>008-011-050100-
...WEST CENTRAL VALLEYS...

CITY           SKY/WX    TMP DP  RH WIND       PRES   REMARKS
GRAND JUNCTION PTSUNNY   93  47  20 SE8       29.91S
MONTROSE       CLOUDY    84  48  28 S9        30.04S
EAGLE          MOSUNNY   79  45  29 W8        30.12R
RIFLE          CLOUDY    90  46  21 S16       29.96S
DELTA          CLOUDY    93  50  23 S12       29.97S
NUCLA          CLOUDY    81  46  30 E14       30.08S
$$

COZ017>023-064>068-050100-
...SOUTHWEST COLORADO...

CITY           SKY/WX    TMP DP  RH WIND       PRES   REMARKS
DURANGO        CLOUDY    72  47  40 SE10      30.15R THUNDER
CORTEZ         MOSUNNY   82  48  30 NE12G21   30.06R
PAGOSA SPRINGS TSTM      61  57  87 E7        30.25F
TELLURIDE      CLOUDY    63  51  67 SE5       30.36S
WOLF CREEK PAS NOT AVBL
$$

COZ009-010-012-014-032>034-037-058>063-050100-
...CENTRAL COLORADO...

CITY           SKY/WX    TMP DP  RH WIND       PRES   REMARKS
ASPEN          CLOUDY    71  53  52 NW3       30.21R
BUENA VISTA    PTSUNNY   65  46  50 W16       30.25F
COPPER MTN     PTSUNNY   64  30  27 W6        30.56F
BERTHOUD PASS  CLOUDY    48  37  66 E13G29    30.61R
COTTONWOOD PAS NOT AVBL
GUNNISON       CLOUDY    73  45  35 N7        30.22R
KREMMLING      CLOUDY    77  36  22 W13       30.17R
LEADVILLE      PTSUNNY   65  43  44 N6        30.37R
MONARCH PASS   CLOUDY    54  43  66 E20G28    30.65F
SALIDA         PTSUNNY   74  48  38 E6        30.29R
SUNLIGHT       CLOUDY    63  46  55 SE3       30.49R
WILKERSON PASS DRIZZLE   52  39  62 CALM      30.55S
$$

COZ069>075-050100-
...SAN LUIS VALLEY/SANGRE DE CRISTO MOUNTAINS...

CITY           SKY/WX    TMP DP  RH WIND       PRES   REMARKS
ALAMOSA        CLOUDY    76  46  34 W13       30.17S
LA VETA PASS   RAIN      54  43  66 MISG      30.43R
SAGUACHE       CLOUDY    70  46  43 CALM      30.23S
$$

COZ035-036-038>040-050100-
...NORTHERN COLORADO FRONT RANGE...

CITY           SKY/WX    TMP DP  RH WIND       PRES   REMARKS
DENVER INTL AP PTSUNNY   87  46  24 SW20G28   29.96F
DMNS CITY PARK   N/A     76  53  44 S3G13     29.98S
AURORA         PTSUNNY   80  49  34 SW15G22   30.01S
FRONT RANGE AP PTSUNNY   91  48  22 W3        29.99S
ERIE MUNI ARPT PTSUNNY   85  51  30 SW9       29.96S
BOULDER MUN AP PTSUNNY   81  50  34 SW8       29.97F
CENTENNIAL     TSTM      74  49  41 E13G25    30.05R
BROOMFIELD     PTSUNNY   79  55  44 SW12      30.02R
FORT COLLINS   CLOUDY    82  52  34 S9        29.93R
LONGMONT       CLOUDY    90  53  28 SW10      29.96S
$$

COZ041-046-047-076>085-087-088-050100-
...PIKES PEAK/PALMER DIVIDE AND SOUTHERN FOOTHILLS...

CITY           SKY/WX    TMP DP  RH WIND       PRES   REMARKS
COLO. SPRINGS  PTSUNNY   79  51  37 S13       30.07S
A. F. ACADEMY  PTSUNNY   79  45  30 S12       30.08S
ELLICOTT       PTSUNNY  N/A N/A N/A W17       30.05S
FALCON         PTSUNNY   78  46  32 SW9       30.13F
FORT CARSON    PTSUNNY   79  50  35 W21G26    30.03F
LIMON          MOSUNNY   85  56  37 S12       29.97S
MONUMENT HILL  NOT AVBL
TRINIDAD       CLOUDY    81  48  31 NW9       30.04R
$$

COZ042>045-048>051-090-091-050100-
...NORTHEAST COLORADO...

CITY           SKY/WX    TMP DP  RH WIND       PRES   REMARKS
GREELEY ARPT   CLOUDY    73  61  64 N12       29.93R THUNDER
AKRON          MOSUNNY   87  57  35 SE18      29.89S
BURLINGTON     SUNNY     93  50  23 S14       29.90F
WRAY           SUNNY     96  51  21 SE16      29.85S
STERLING       MOSUNNY   93  55  27 SE12        N/A
HOLYOKE        SUNNY     95  55  26 S15       29.85F
FORT MORGAN    MOSUNNY   88  48  25 CALM      29.89S
$$

COZ086-089-092>099-050100-
...SOUTHEAST COLORADO...

CITY           SKY/WX    TMP DP  RH WIND       PRES   REMARKS
PUEBLO         PTSUNNY   91  47  21 W12       29.93F
LA JUNTA       PTSUNNY   99  49  18 N7        29.86F
LAMAR          MOSUNNY   98  49  18 CALM      29.81F
SPRINGFIELD      N/A     77  62  59 W12G20    29.93R
$$



USA.gov is the U.S. government's official web portal to all federal, state and local government web resources and services.